Location: Lafig�re
(44.4503°N, 4.0357°E)
Time: 00:36:50
(UTC+00:00)

ARGOS - Pass Details

Date: 01 February 2021
Orbit: 821 x 834 km, 98.4° (Epoch: 03 March)

Event Time Altitude Azimuth Distance (km) Brightness Sun altitude
Rises 20:29:14 0° 223° (SW) 3,347 6.6 -38.5°
Reaches altitude 10° 20:33:42 10° 258° (WSW) 2,426 6.1 -39.3°
Maximum altitude 20:35:08 11° 274° (W) 2,357 6.2 -39.5°
Drops below altitude 10° 20:36:35 10° 290° (WNW) 2,433 6.3 -39.8°
Sets 20:41:06 0° 325° (NW) 3,378 6.9 -40.6°
